Time,TemperatureF,DewpointF,PressureIn,WindDirection,WindDirectionDegrees,WindSpeedMPH,WindSpeedGustMPH,Humidity,HourlyPrecipIn,Conditions,Clouds,dailyrainin,SoftwareType,DateUTC
2013-01-16 00:03:00,30.0,26.0,30.07,ENE,60,1.0,5.0,84,0.00,,,0.00,,2013-01-16 05:03:00,
2013-01-16 00:12:00,30.0,26.0,30.07,ENE,60,1.0,5.0,84,0.00,,,0.00,,2013-01-16 05:12:00,
2013-01-16 00:22:00,30.0,26.0,30.06,ENE,73,2.0,6.0,86,0.00,,,0.00,,2013-01-16 05:22:00,
2013-01-16 00:32:00,30.0,27.0,30.05,NNW,333,1.0,4.0,87,0.00,,,0.00,,2013-01-16 05:32:00,
2013-01-16 00:42:00,30.0,27.0,30.05,NNW,333,1.0,4.0,87,0.00,,,0.00,,2013-01-16 05:42:00,
2013-01-16 00:53:00,30.0,27.0,30.04,North,350,0.0,4.0,87,0.00,,,0.00,,2013-01-16 05:53:00,
2013-01-16 01:02:00,30.0,27.0,30.03,ENE,58,1.0,3.0,87,0.00,,,0.00,,2013-01-16 06:02:00,
2013-01-16 01:12:00,30.0,27.0,30.03,ENE,58,1.0,3.0,87,0.00,,,0.00,,2013-01-16 06:12:00,
2013-01-16 01:22:00,30.0,27.0,30.01,NE,48,0.0,2.0,87,0.00,,,0.00,,2013-01-16 06:22:00,
2013-01-16 01:32:00,30.0,26.0,30.03,WNW,300,1.0,3.0,86,0.00,,,0.00,,2013-01-16 06:32:00,
2013-01-16 01:43:00,30.0,26.0,30.03,WNW,300,1.0,3.0,86,0.00,,,0.00,,2013-01-16 06:43:00,
2013-01-16 01:53:00,30.0,26.0,30.03,NNW,330,0.0,4.0,85,0.00,,,0.00,,2013-01-16 06:53:00,
2013-01-16 02:02:00,30.0,26.0,30.06,NNW,335,0.0,2.0,84,0.00,,,0.00,,2013-01-16 07:02:00,
2013-01-16 02:12:00,30.0,26.0,30.06,NNW,335,0.0,2.0,84,0.00,,,0.00,,2013-01-16 07:12:00,
2013-01-16 02:22:00,30.0,26.0,30.03,NW,324,1.0,3.0,84,0.00,,,0.00,,2013-01-16 07:22:00,
2013-01-16 02:33:00,30.0,26.0,30.03,NNW,331,0.0,2.0,85,0.00,,,0.00,,2013-01-16 07:33:00,
2013-01-16 02:42:00,30.0,26.0,30.03,NNW,331,0.0,2.0,85,0.00,,,0.00,,2013-01-16 07:42:00,
2013-01-16 02:52:00,30.0,26.0,30.03,North,355,0.0,2.0,84,0.00,,,0.00,,2013-01-16 07:52:00,
2013-01-16 03:02:00,31.0,27.0,30.03,NNW,340,1.0,2.0,84,0.00,,,0.00,,2013-01-16 08:02:00,
2013-01-16 03:12:00,31.0,27.0,30.03,NNW,340,1.0,2.0,84,0.00,,,0.00,,2013-01-16 08:12:00,
2013-01-16 03:22:00,31.0,27.0,30.03,NW,321,0.0,3.0,85,0.00,,,0.00,,2013-01-16 08:22:00,
2013-01-16 03:32:00,31.0,27.0,30.03,NW,321,0.0,1.0,85,0.00,,,0.00,,2013-01-16 08:32:00,
2013-01-16 03:42:00,31.0,27.0,30.03,NW,321,0.0,1.0,85,0.00,,,0.00,,2013-01-16 08:42:00,
2013-01-16 03:53:00,30.0,26.0,30.00,ENE,70,1.0,2.0,85,0.00,,,0.00,,2013-01-16 08:53:00,
2013-01-16 04:02:00,30.0,26.0,30.01,NNW,341,0.0,1.0,85,0.00,,,0.00,,2013-01-16 09:02:00,
2013-01-16 04:12:00,30.0,26.0,30.01,NNW,341,0.0,1.0,85,0.00,,,0.00,,2013-01-16 09:12:00,
2013-01-16 04:22:00,30.0,26.0,30.00,NE,50,1.0,3.0,85,0.00,,,0.00,,2013-01-16 09:22:00,
2013-01-16 04:32:00,30.0,26.0,30.00,ENE,73,0.0,1.0,85,0.00,,,0.00,,2013-01-16 09:32:00,
2013-01-16 04:42:00,30.0,26.0,30.00,ENE,73,0.0,1.0,85,0.00,,,0.00,,2013-01-16 09:42:00,
2013-01-16 04:53:00,30.0,26.0,29.99,NNE,28,0.0,1.0,84,0.00,,,0.00,,2013-01-16 09:53:00,
2013-01-16 05:02:00,31.0,27.0,30.00,WNW,292,0.0,1.0,84,0.00,,,0.00,,2013-01-16 10:02:00,
2013-01-16 05:12:00,31.0,27.0,30.00,WNW,292,0.0,1.0,84,0.00,,,0.00,,2013-01-16 10:12:00,
2013-01-16 05:22:00,31.0,27.0,29.99,NNW,331,1.0,2.0,84,0.00,,,0.00,,2013-01-16 10:22:00,
2013-01-16 05:32:00,31.0,27.0,29.99,NNW,335,0.0,2.0,84,0.00,,,0.00,,2013-01-16 10:32:00,
2013-01-16 05:42:00,31.0,27.0,29.99,NNW,335,0.0,2.0,84,0.00,,,0.00,,2013-01-16 10:42:00,
2013-01-16 05:53:00,31.0,27.0,29.99,NNW,335,0.0,2.0,84,0.00,,,0.00,,2013-01-16 10:53:00,
2013-01-16 06:02:00,31.0,27.0,29.99,NW,305,0.0,1.0,85,0.00,,,0.00,,2013-01-16 11:02:00,
2013-01-16 06:12:00,31.0,27.0,29.99,NW,305,0.0,1.0,85,0.00,,,0.00,,2013-01-16 11:12:00,
2013-01-16 06:23:00,30.0,26.0,29.99,NNW,331,1.0,2.0,85,0.00,,,0.00,,2013-01-16 11:23:00,
2013-01-16 06:33:00,30.0,26.0,29.97,NNW,346,0.0,2.0,86,0.00,,,0.00,,2013-01-16 11:33:00,
2013-01-16 06:42:00,30.0,26.0,29.97,NNW,346,0.0,2.0,86,0.00,,,0.00,,2013-01-16 11:42:00,
2013-01-16 06:53:00,30.0,26.0,29.98,NNW,347,0.0,1.0,86,0.00,,,0.00,,2013-01-16 11:53:00,
2013-01-16 07:03:00,30.0,27.0,30.00,WNW,288,0.0,1.0,87,0.00,,,0.00,,2013-01-16 12:03:00,
2013-01-16 07:13:00,30.0,27.0,30.00,WNW,288,0.0,1.0,87,0.00,,,0.00,,2013-01-16 12:13:00,
2013-01-16 07:22:00,30.0,27.0,29.98,WNW,299,2.0,3.0,87,0.00,,,0.00,,2013-01-16 12:22:00,
2013-01-16 07:33:00,30.0,27.0,29.98,WNW,283,1.0,5.0,88,0.00,,,0.00,,2013-01-16 12:33:00,
2013-01-16 07:43:00,30.0,27.0,29.98,WNW,283,1.0,5.0,88,0.00,,,0.00,,2013-01-16 12:43:00,
2013-01-16 07:53:00,30.0,27.0,30.00,NW,304,2.0,6.0,88,0.00,,,0.00,,2013-01-16 12:53:00,
2013-01-16 08:03:00,30.0,27.0,30.00,NW,304,2.0,6.0,88,0.00,,,0.00,,2013-01-16 13:03:00,
2013-01-16 08:12:00,30.0,27.0,30.00,NW,304,2.0,6.0,88,0.00,,,0.00,,2013-01-16 13:12:00,
2013-01-16 08:23:00,30.0,27.0,30.00,WNW,283,3.0,6.0,88,0.00,,,0.00,,2013-01-16 13:23:00,
2013-01-16 08:33:00,30.0,27.0,30.01,North,352,2.0,6.0,88,0.00,,,0.00,,2013-01-16 13:33:00,
2013-01-16 08:43:00,30.0,27.0,30.01,North,352,2.0,6.0,88,0.00,,,0.00,,2013-01-16 13:43:00,
2013-01-16 08:53:00,30.0,27.0,30.00,NW,316,1.0,3.0,88,0.00,,,0.00,,2013-01-16 13:53:00,
2013-01-16 09:03:00,30.0,27.0,30.02,WNW,288,3.0,7.0,88,0.00,,,0.00,,2013-01-16 14:03:00,
2013-01-16 09:12:00,30.0,27.0,30.02,WNW,288,3.0,7.0,88,0.00,,,0.00,,2013-01-16 14:12:00,
2013-01-16 09:23:00,30.0,27.0,30.04,WNW,282,2.0,7.0,89,0.00,,,0.00,,2013-01-16 14:23:00,
2013-01-16 09:33:00,30.0,27.0,30.04,WNW,288,1.0,4.0,88,0.00,,,0.00,,2013-01-16 14:33:00,
2013-01-16 09:43:00,30.0,27.0,30.04,WNW,288,1.0,4.0,88,0.00,,,0.00,,2013-01-16 14:43:00,
2013-01-16 09:53:00,30.0,27.0,30.06,WNW,298,1.0,4.0,89,0.00,,,0.00,,2013-01-16 14:53:00,
2013-01-16 10:03:00,31.0,28.0,30.05,WNW,289,3.0,4.0,88,0.00,,,0.00,,2013-01-16 15:03:00,
2013-01-16 10:12:00,31.0,28.0,30.05,WNW,289,3.0,4.0,88,0.00,,,0.00,,2013-01-16 15:12:00,
2013-01-16 10:23:00,31.0,28.0,30.05,NW,317,2.0,5.0,88,0.00,,,0.00,,2013-01-16 15:23:00,
2013-01-16 10:33:00,31.0,28.0,30.06,NW,324,1.0,4.0,88,0.00,,,0.00,,2013-01-16 15:33:00,
2013-01-16 10:43:00,31.0,28.0,30.06,NW,324,1.0,4.0,88,0.00,,,0.00,,2013-01-16 15:43:00,
2013-01-16 10:53:00,31.0,28.0,30.05,West,271,2.0,4.0,88,0.00,,,0.00,,2013-01-16 15:53:00,
2013-01-16 11:03:00,31.0,28.0,30.03,West,281,2.0,4.0,88,0.00,,,0.00,,2013-01-16 16:03:00,
2013-01-16 11:12:00,31.0,28.0,30.03,West,281,2.0,4.0,88,0.00,,,0.00,,2013-01-16 16:12:00,
2013-01-16 11:23:00,32.0,29.0,30.03,West,274,1.0,5.0,87,0.00,,,0.00,,2013-01-16 16:23:00,
2013-01-16 11:33:00,32.0,28.0,30.05,WNW,292,3.0,8.0,86,0.00,,,0.00,,2013-01-16 16:33:00,
2013-01-16 11:43:00,32.0,28.0,30.05,WNW,292,3.0,8.0,86,0.00,,,0.00,,2013-01-16 16:43:00,
2013-01-16 11:53:00,32.0,28.0,30.04,SSW,196,2.0,5.0,86,0.00,,,0.00,,2013-01-16 16:53:00,
2013-01-16 12:03:00,32.0,28.0,30.00,West,275,0.0,7.0,86,0.00,,,0.00,,2013-01-16 17:03:00,
2013-01-16 12:12:00,32.0,28.0,30.00,West,275,0.0,7.0,86,0.00,,,0.00,,2013-01-16 17:12:00,
2013-01-16 12:23:00,33.0,29.0,30.01,WNW,288,3.0,6.0,84,0.00,,,0.00,,2013-01-16 17:23:00,
2013-01-16 12:33:00,33.0,29.0,30.01,WNW,288,3.0,6.0,84,0.00,,,0.00,,2013-01-16 17:33:00,
2013-01-16 12:43:00,33.0,29.0,30.01,WNW,288,3.0,6.0,84,0.00,,,0.00,,2013-01-16 17:43:00,
2013-01-16 12:53:00,33.0,29.0,30.01,WNW,288,3.0,6.0,84,0.00,,,0.00,,2013-01-16 17:53:00,
2013-01-16 13:03:00,34.0,29.0,30.00,West,281,3.0,6.0,83,0.00,,,0.00,,2013-01-16 18:03:00,
2013-01-16 13:13:00,34.0,29.0,30.00,West,281,3.0,6.0,83,0.00,,,0.00,,2013-01-16 18:13:00,
2013-01-16 13:23:00,34.0,28.0,29.98,WNW,300,5.0,10.0,80,0.00,,,0.00,,2013-01-16 18:23:00,
2013-01-16 13:33:00,34.0,28.0,29.99,WSW,250,2.0,6.0,77,0.00,,,0.00,,2013-01-16 18:33:00,
2013-01-16 13:42:00,34.0,28.0,29.99,WSW,250,2.0,6.0,77,0.00,,,0.00,,2013-01-16 18:42:00,
2013-01-16 13:53:00,35.0,29.0,29.99,NW,308,1.0,6.0,77,0.00,,,0.00,,2013-01-16 18:53:00,
2013-01-16 14:03:00,35.0,28.0,29.99,NW,322,2.0,8.0,75,0.00,,,0.00,,2013-01-16 19:03:00,
2013-01-16 14:12:00,35.0,28.0,29.99,NW,322,2.0,8.0,75,0.00,,,0.00,,2013-01-16 19:12:00,
2013-01-16 14:23:00,35.0,28.0,30.00,West,275,3.0,5.0,75,0.00,,,0.00,,2013-01-16 19:23:00,
2013-01-16 14:33:00,35.0,28.0,30.01,NW,314,2.0,5.0,75,0.00,,,0.00,,2013-01-16 19:33:00,
2013-01-16 14:43:00,35.0,28.0,30.01,NW,314,2.0,5.0,75,0.00,,,0.00,,2013-01-16 19:43:00,
2013-01-16 14:53:00,35.0,28.0,30.00,WNW,292,1.0,4.0,76,0.00,,,0.00,,2013-01-16 19:53:00,
2013-01-16 15:03:00,35.0,27.0,29.99,West,271,1.0,4.0,73,0.00,,,0.00,,2013-01-16 20:03:00,
2013-01-16 15:12:00,35.0,27.0,29.99,West,271,1.0,4.0,73,0.00,,,0.00,,2013-01-16 20:12:00,
2013-01-16 15:23:00,35.0,27.0,29.98,South,182,1.0,4.0,73,0.00,,,0.00,,2013-01-16 20:23:00,
2013-01-16 15:33:00,35.0,27.0,29.99,WNW,291,2.0,3.0,73,0.00,,,0.00,,2013-01-16 20:33:00,
2013-01-16 15:43:00,35.0,27.0,29.99,WNW,291,2.0,3.0,73,0.00,,,0.00,,2013-01-16 20:43:00,
2013-01-16 15:53:00,35.0,26.0,29.98,WSW,257,2.0,5.0,70,0.00,,,0.00,,2013-01-16 20:53:00,
2013-01-16 16:03:00,35.0,27.0,30.00,SSW,204,1.0,6.0,73,0.00,,,0.00,,2013-01-16 21:03:00,
2013-01-16 16:12:00,35.0,27.0,30.00,SSW,204,1.0,6.0,73,0.00,,,0.00,,2013-01-16 21:12:00,
2013-01-16 16:22:00,35.0,27.0,30.00,SSW,209,3.0,8.0,71,0.00,,,0.00,,2013-01-16 21:22:00,
2013-01-16 16:33:00,35.0,27.0,30.01,SSE,158,2.0,6.0,71,0.00,,,0.00,,2013-01-16 21:33:00,
2013-01-16 16:43:00,35.0,27.0,30.01,SSE,158,2.0,6.0,71,0.00,,,0.00,,2013-01-16 21:43:00,
2013-01-16 16:53:00,35.0,27.0,30.01,NNW,330,3.0,8.0,73,0.00,,,0.00,,2013-01-16 21:53:00,
2013-01-16 17:03:00,35.0,27.0,30.01,NNW,330,3.0,8.0,73,0.00,,,0.00,,2013-01-16 22:03:00,
2013-01-16 17:12:00,35.0,27.0,30.01,NNW,330,3.0,8.0,73,0.00,,,0.00,,2013-01-16 22:12:00,
2013-01-16 17:23:00,34.0,27.0,30.01,WSW,257,1.0,7.0,75,0.00,,,0.00,,2013-01-16 22:23:00,
2013-01-16 17:33:00,34.0,27.0,30.03,WSW,243,3.0,7.0,76,0.00,,,0.00,,2013-01-16 22:33:00,
2013-01-16 17:43:00,34.0,27.0,30.03,WSW,243,3.0,7.0,76,0.00,,,0.00,,2013-01-16 22:43:00,
2013-01-16 17:53:00,34.0,28.0,30.02,South,178,2.0,6.0,77,0.00,,,0.00,,2013-01-16 22:53:00,
2013-01-16 18:03:00,34.0,28.0,30.03,South,189,1.0,4.0,79,0.00,,,0.00,,2013-01-16 23:03:00,
2013-01-16 18:12:00,33.0,28.0,30.02,South,174,3.0,7.0,81,0.00,,,0.00,,2013-01-16 23:12:00,
2013-01-16 18:23:00,33.0,28.0,30.02,South,174,3.0,7.0,81,0.00,,,0.00,,2013-01-16 23:23:00,
2013-01-16 18:32:00,33.0,28.0,30.02,SSW,193,0.0,6.0,83,0.00,,,0.00,,2013-01-16 23:32:00,
2013-01-16 18:42:00,33.0,28.0,30.02,SSW,193,0.0,6.0,83,0.00,,,0.00,,2013-01-16 23:42:00,
2013-01-16 18:53:00,33.0,29.0,30.02,South,189,2.0,6.0,84,0.00,,,0.00,,2013-01-16 23:53:00,
2013-01-16 19:02:00,32.0,28.0,30.02,SSW,201,1.0,5.0,85,0.00,,,0.00,,2013-01-17 00:02:00,
2013-01-16 19:12:00,32.0,28.0,30.02,SSW,201,1.0,5.0,85,0.00,,,0.00,,2013-01-17 00:12:00,
2013-01-16 19:22:00,32.0,29.0,30.03,SW,219,2.0,7.0,87,0.00,,,0.00,,2013-01-17 00:22:00,
2013-01-16 19:32:00,32.0,29.0,30.03,West,268,2.0,8.0,88,0.00,,,0.00,,2013-01-17 00:32:00,
2013-01-16 19:42:00,32.0,29.0,30.03,West,268,2.0,8.0,88,0.00,,,0.00,,2013-01-17 00:42:00,
2013-01-16 19:53:00,32.0,29.0,30.05,South,182,1.0,9.0,89,0.00,,,0.00,,2013-01-17 00:53:00,
2013-01-16 20:02:00,32.0,29.0,30.05,WSW,253,3.0,9.0,89,0.00,,,0.00,,2013-01-17 01:02:00,
2013-01-16 20:12:00,32.0,29.0,30.05,WSW,253,3.0,9.0,89,0.00,,,0.00,,2013-01-17 01:12:00,
2013-01-16 20:22:00,31.0,28.0,30.05,SE,143,1.0,5.0,90,0.00,,,0.00,,2013-01-17 01:22:00,
2013-01-16 20:33:00,31.0,28.0,30.06,South,171,4.0,10.0,89,0.00,,,0.00,,2013-01-17 01:33:00,
2013-01-16 20:42:00,31.0,28.0,30.06,South,171,4.0,10.0,89,0.00,,,0.00,,2013-01-17 01:42:00,
2013-01-16 20:52:00,31.0,28.0,30.05,WNW,290,1.0,7.0,89,0.00,,,0.00,,2013-01-17 01:52:00,
2013-01-16 21:02:00,31.0,28.0,30.05,SSW,204,3.0,8.0,89,0.00,,,0.00,,2013-01-17 02:02:00,
2013-01-16 21:12:00,31.0,28.0,30.05,SSW,204,3.0,8.0,89,0.00,,,0.00,,2013-01-17 02:12:00,
2013-01-16 21:22:00,31.0,28.0,30.06,WNW,300,2.0,8.0,88,0.00,,,0.00,,2013-01-17 02:22:00,
2013-01-16 21:32:00,31.0,28.0,30.05,South,178,2.0,9.0,88,0.00,,,0.00,,2013-01-17 02:32:00,
2013-01-16 21:42:00,31.0,28.0,30.05,South,178,2.0,9.0,88,0.00,,,0.00,,2013-01-17 02:42:00,
2013-01-16 21:52:00,31.0,28.0,30.05,South,178,2.0,9.0,88,0.00,,,0.00,,2013-01-17 02:52:00,
2013-01-16 22:03:00,31.0,27.0,30.05,West,268,3.0,8.0,86,0.00,,,0.00,,2013-01-17 03:03:00,
2013-01-16 22:12:00,31.0,27.0,30.05,West,268,3.0,8.0,86,0.00,,,0.00,,2013-01-17 03:12:00,
2013-01-16 22:22:00,31.0,27.0,30.05,West,268,3.0,8.0,86,0.00,,,0.00,,2013-01-17 03:22:00,
2013-01-16 22:32:00,31.0,27.0,30.05,West,268,3.0,8.0,86,0.00,,,0.00,,2013-01-17 03:32:00,
2013-01-16 23:53:00,31.0,26.0,30.06,WSW,257,1.0,5.0,82,0.00,,,0.00,,2013-01-17 04:53:00,